,,,PA_Meas_PMT16A,,PR_Meas_QMR101_102,,RH_Meas_QMH101,,SR_Meas_QMS101,,TA_Meas_QMH101,,GenWind,,GenWind,
date,time,status,PA,status,PR,status,RH,status,SR,status,TA,status,DirAvg,status,SpdAvg,
2008-12-15, 00:00:05,VALID,1003.42,VALID,0,VALID,87.3507,VALID,0,VALID,24.93,VALID,333,VALID,0.1,
2008-12-15, 00:01:05,VALID,1003.43,VALID,0,VALID,87.2286,VALID,0,VALID,24.93,VALID,311,VALID,0.141797,
2008-12-15, 00:02:05,VALID,1003.42,VALID,0,VALID,87.2591,VALID,0,VALID,24.9495,VALID,311,VALID,0.129297,
2008-12-15, 00:03:05,VALID,1003.43,VALID,0,VALID,87.1218,VALID,0,VALID,24.969,VALID,311,VALID,0.221094,
2008-12-15, 00:04:05,VALID,1003.4,VALID,0,VALID,87.1218,VALID,0,VALID,24.9476,VALID,312,VALID,0.373437,
2008-12-15, 00:05:05,VALID,1003.4,VALID,0,VALID,87.2362,VALID,0,VALID,24.9671,VALID,312,VALID,0.335547,
2008-12-15, 00:06:05,VALID,1003.39,VALID,0,VALID,87.5567,VALID,0,VALID,24.9495,VALID,312,VALID,0.227344,
2008-12-15, 00:07:05,VALID,1003.39,VALID,0,VALID,87.7932,VALID,0,VALID,24.8716,VALID,312,VALID,0.420312,
2008-12-15, 00:08:05,VALID,1003.37,VALID,0,VALID,88.1288,VALID,0,VALID,24.8346,VALID,312,VALID,0.282422,
2008-12-15, 00:09:05,VALID,1003.37,VALID,0,VALID,88.4492,VALID,0,VALID,24.7548,VALID,312,VALID,0.296094,
2008-12-15, 00:10:05,VALID,1003.38,VALID,0,VALID,88.8612,VALID,0,VALID,24.7159,VALID,312,VALID,0.227344,
2008-12-15, 00:11:05,VALID,1003.41,VALID,0,VALID,89.235,VALID,0,VALID,24.6593,VALID,312,VALID,0.0679687,
2008-12-15, 00:12:05,VALID,1003.41,VALID,0,VALID,89.235,VALID,0,VALID,24.599,VALID,312,VALID,0,
2008-12-15, 00:13:05,VALID,1003.4,VALID,0,VALID,89.0977,VALID,0,VALID,24.5388,VALID,321,VALID,0.273438,
2008-12-15, 00:14:05,VALID,1003.41,VALID,0,VALID,89.1282,VALID,0,VALID,24.5601,VALID,321,VALID,0.333203,
2008-12-15, 00:15:05,VALID,1003.38,VALID,0,VALID,89.235,VALID,0,VALID,24.5406,VALID,321,VALID,0.272656,
2008-12-15, 00:16:05,VALID,1003.38,VALID,0,VALID,89.5097,VALID,0,VALID,24.5601,VALID,321,VALID,0.412891,
2008-12-15, 00:17:05,VALID,1003.35,VALID,0,VALID,89.7538,VALID,0,VALID,24.5406,VALID,321,VALID,0.457422,
2008-12-15, 00:18:05,VALID,1003.36,VALID,0,VALID,89.9216,VALID,0,VALID,24.5035,VALID,332,VALID,0.549609,
2008-12-15, 00:19:05,VALID,1003.36,VALID,0,VALID,90.2115,VALID,0,VALID,24.4433,VALID,332,VALID,0.473828,
2008-12-15, 00:20:05,VALID,1003.36,VALID,0,VALID,90.3717,VALID,0,VALID,24.3849,VALID,332,VALID,0.433594,
2008-12-15, 00:21:05,VALID,1003.33,VALID,0,VALID,90.5548,VALID,0,VALID,24.3265,VALID,333,VALID,0.591016,
2008-12-15, 00:22:05,VALID,1003.29,VALID,0,VALID,90.776,VALID,0,VALID,24.2875,VALID,338,VALID,0.405469,
2008-12-15, 00:23:05,VALID,1003.3,VALID,0,VALID,90.7074,VALID,0,VALID,24.2486,VALID,338,VALID,0.279687,
2008-12-15, 00:24:05,VALID,1003.24,VALID,0,VALID,90.6998,VALID,0,VALID,24.2504,VALID,339,VALID,0.472266,
2008-12-15, 00:25:05,VALID,1003.22,VALID,0,VALID,90.8066,VALID,0,VALID,24.2273,VALID,339,VALID,0.308203,
2008-12-15, 00:26:05,VALID,1003.2,VALID,0,VALID,90.7837,VALID,0,VALID,24.2291,VALID,339,VALID,0,
2008-12-15, 00:27:05,VALID,1003.16,VALID,0,VALID,90.8218,VALID,0,VALID,24.2486,VALID,339,VALID,0.236719,
2008-12-15, 00:28:05,VALID,1003.15,VALID,0,VALID,90.9897,VALID,0,VALID,24.2486,VALID,337,VALID,0.404297,
2008-12-15, 00:29:05,VALID,1003.12,VALID,0,VALID,90.9134,VALID,0,VALID,24.2486,VALID,336,VALID,0.482031,
2008-12-15, 00:30:05,VALID,1003.1,VALID,0,VALID,90.9515,VALID,0,VALID,24.2681,VALID,360,VALID,0.855078,
2008-12-15, 00:31:05,VALID,1003.1,VALID,0,VALID,90.6006,VALID,0,VALID,24.2875,VALID,348,VALID,0.692187,
2008-12-15, 00:32:05,VALID,1003.06,VALID,0,VALID,90.6158,VALID,0,VALID,24.307,VALID,360,VALID,0.710547,
2008-12-15, 00:33:05,VALID,1003.07,VALID,0,VALID,90.4633,VALID,0,VALID,24.2875,VALID,1,VALID,0.613672,
2008-12-15, 00:34:05,VALID,1003.06,VALID,0,VALID,90.4862,VALID,0,VALID,24.2681,VALID,1,VALID,0.595703,
2008-12-15, 00:35:05,VALID,1003.06,VALID,0,VALID,90.5548,VALID,0,VALID,24.2681,VALID,1,VALID,0.404297,
2008-12-15, 00:36:05,VALID,1003.06,VALID,0,VALID,90.4633,VALID,0,VALID,24.2486,VALID,360,VALID,0.384375,
2008-12-15, 00:37:05,VALID,1003.06,VALID,0,VALID,90.181,VALID,0,VALID,24.2291,VALID,356,VALID,0.471875,
2008-12-15, 00:38:05,VALID,1003.06,VALID,0,VALID,90.0971,VALID,0,VALID,24.2875,VALID,351,VALID,0.367188,
2008-12-15, 00:39:04,VALID,1003.08,VALID,0,VALID,89.9903,VALID,0,VALID,24.307,VALID,351,VALID,0.200781,
2008-12-15, 00:40:04,VALID,1003.07,VALID,0,VALID,89.8301,VALID,0,VALID,24.3459,VALID,348,VALID,0.136719,
2008-12-15, 00:41:04,VALID,1003.07,VALID,0,VALID,89.8911,VALID,0,VALID,24.3441,VALID,348,VALID,0.242578,
2008-12-15, 00:42:04,VALID,1003.04,VALID,0,VALID,89.8758,VALID,0.100563,VALID,24.3636,VALID,348,VALID,0.310156,
2008-12-15, 00:43:04,VALID,1003.05,VALID,0,VALID,89.8911,VALID,0.100563,VALID,24.3246,VALID,349,VALID,0.440234,
2008-12-15, 00:44:04,VALID,1003.03,VALID,0,VALID,89.9445,VALID,0,VALID,24.2857,VALID,349,VALID,0.301172,
2008-12-15, 00:45:04,VALID,1002.99,VALID,0,VALID,90.1734,VALID,0.100563,VALID,24.2468,VALID,351,VALID,0.391797,
2008-12-15, 00:46:04,VALID,1002.97,VALID,0,VALID,90.4404,VALID,0,VALID,24.2097,VALID,351,VALID,0.362891,
2008-12-15, 00:47:04,VALID,1002.95,VALID,0,VALID,90.6006,VALID,0.100563,VALID,24.1494,VALID,357,VALID,0.475,
2008-12-15, 00:48:04,VALID,1002.92,VALID,0,VALID,90.6235,VALID,0.100563,VALID,24.1318,VALID,359,VALID,0.425391,
2008-12-15, 00:49:04,VALID,1002.91,VALID,0,VALID,90.7608,VALID,0.100563,VALID,24.1105,VALID,359,VALID,0.463281,
2008-12-15, 00:50:04,VALID,1002.87,VALID,0,VALID,90.9286,VALID,0,VALID,24.0929,VALID,359,VALID,0.380078,
2008-12-15, 00:51:04,VALID,1002.88,VALID,0,VALID,91.0049,VALID,0.100563,VALID,24.0734,VALID,359,VALID,0.35625,
2008-12-15, 00:52:04,VALID,1002.86,VALID,0,VALID,91.1422,VALID,0,VALID,24.0132,VALID,359,VALID,0.364844,
2008-12-15, 00:53:04,VALID,1002.86,VALID,0,VALID,91.3177,VALID,0.100563,VALID,24.015,VALID,359,VALID,0.224219,
2008-12-15, 00:54:04,VALID,1002.85,VALID,0,VALID,91.5008,VALID,0.100563,VALID,23.9937,VALID,359,VALID,0.264062,
2008-12-15, 00:55:04,VALID,1002.85,VALID,0,VALID,91.5466,VALID,0,VALID,23.9955,VALID,358,VALID,0.372656,
2008-12-15, 00:56:04,VALID,1002.84,VALID,0,VALID,91.6839,VALID,0.100563,VALID,23.9761,VALID,358,VALID,0.268359,
2008-12-15, 00:57:04,VALID,1002.82,VALID,0,VALID,91.7525,VALID,0,VALID,23.9761,VALID,358,VALID,0.373047,
2008-12-15, 00:58:04,VALID,1002.8,VALID,0,VALID,91.7678,VALID,0,VALID,23.9742,VALID,358,VALID,0.260547,
2008-12-15, 00:59:04,VALID,1002.81,VALID,0,VALID,91.7602,VALID,0,VALID,23.9761,VALID,358,VALID,0.276953,
2008-12-15, 01:00:04,VALID,1002.79,VALID,0,VALID,91.8212,VALID,0.100563,VALID,23.914,VALID,358,VALID,0.276172,
2008-12-15, 01:01:04,VALID,1002.79,VALID,0,VALID,91.8212,VALID,0,VALID,23.9566,VALID,358,VALID,0.125781,
2008-12-15, 01:02:04,VALID,1002.79,VALID,0,VALID,91.8975,VALID,0,VALID,23.9159,VALID,358,VALID,0,
2008-12-15, 01:03:04,VALID,1002.75,VALID,0,VALID,91.9585,VALID,0,VALID,23.8964,VALID,358,VALID,0,
2008-12-15, 01:04:04,VALID,1002.73,VALID,0,VALID,92.0882,VALID,0.100563,VALID,23.9177,VALID,358,VALID,0,
2008-12-15, 01:05:04,VALID,1002.77,VALID,0,VALID,92.1874,VALID,0.100563,VALID,23.8964,VALID,358,VALID,0,
2008-12-15, 01:06:04,VALID,1002.72,VALID,0,VALID,92.2408,VALID,0,VALID,23.8769,VALID,358,VALID,0.516016,
2008-12-15, 01:07:04,VALID,1002.7,VALID,0,VALID,92.3323,VALID,0.100563,VALID,23.8362,VALID,14,VALID,0.683203,
2008-12-15, 01:08:04,VALID,1002.71,VALID,0,VALID,92.2484,VALID,0,VALID,23.8185,VALID,15,VALID,0.708594,
2008-12-15, 01:09:04,VALID,1002.67,VALID,0,VALID,92.2942,VALID,0,VALID,23.7796,VALID,15,VALID,0.625,
2008-12-15, 01:10:04,VALID,1002.7,VALID,0,VALID,92.4468,VALID,0,VALID,23.7425,VALID,15,VALID,0.310937,
2008-12-15, 01:11:04,VALID,1002.71,VALID,0,VALID,92.5307,VALID,0,VALID,23.7425,VALID,15,VALID,0,
2008-12-15, 01:12:04,VALID,1002.7,VALID,0,VALID,92.6604,VALID,0,VALID,23.7443,VALID,15,VALID,0,
2008-12-15, 01:13:04,VALID,1002.7,VALID,0,VALID,92.7214,VALID,0,VALID,23.723,VALID,15,VALID,0,
2008-12-15, 01:14:04,VALID,1002.73,VALID,0,VALID,92.7138,VALID,0,VALID,23.7425,VALID,15,VALID,0,
2008-12-15, 01:15:04,VALID,1002.69,VALID,0,VALID,92.7519,VALID,0,VALID,23.7619,VALID,15,VALID,0,
2008-12-15, 01:16:04,VALID,1002.68,VALID,0,VALID,92.7824,VALID,0,VALID,23.7425,VALID,15,VALID,0.244141,
2008-12-15, 01:17:04,VALID,1002.7,VALID,0,VALID,92.8053,VALID,0,VALID,23.7619,VALID,15,VALID,0.19375,
2008-12-15, 01:18:04,VALID,1002.68,VALID,0,VALID,92.7748,VALID,0,VALID,23.7814,VALID,15,VALID,0.264844,
2008-12-15, 01:19:04,VALID,1002.67,VALID,0,VALID,92.729,VALID,0,VALID,23.7619,VALID,15,VALID,0.583984,
2008-12-15, 01:20:04,VALID,1002.66,VALID,0,VALID,92.6833,VALID,0,VALID,23.7619,VALID,15,VALID,0.558984,
2008-12-15, 01:21:04,VALID,1002.66,VALID,0,VALID,92.668,VALID,0,VALID,23.723,VALID,13,VALID,0.557813,
2008-12-15, 01:22:04,VALID,1002.66,VALID,0,VALID,92.7748,VALID,0,VALID,23.7035,VALID,12,VALID,0.587891,
2008-12-15, 01:23:04,VALID,1002.61,VALID,0,VALID,92.8587,VALID,0,VALID,23.7035,VALID,10,VALID,0.488281,
2008-12-15, 01:24:04,VALID,1002.61,VALID,0,VALID,92.9579,VALID,0,VALID,23.6841,VALID,10,VALID,0.341406,
2008-12-15, 01:25:04,VALID,1002.58,VALID,0,VALID,93.0189,VALID,0,VALID,23.6859,VALID,10,VALID,0.268359,
2008-12-15, 01:26:04,VALID,1002.58,VALID,0,VALID,93.0647,VALID,0,VALID,23.6646,VALID,10,VALID,0.4375,
2008-12-15, 01:27:04,VALID,1002.55,VALID,0,VALID,93.0876,VALID,0,VALID,23.6646,VALID,10,VALID,0.257422,
2008-12-15, 01:28:04,VALID,1002.57,VALID,0,VALID,93.1486,VALID,0,VALID,23.6452,VALID,10,VALID,0.229297,
2008-12-15, 01:29:04,VALID,1002.53,VALID,0,VALID,93.1563,VALID,0,VALID,23.6452,VALID,10,VALID,0.373437,
2008-12-15, 01:30:04,VALID,1002.54,VALID,0,VALID,93.2402,VALID,0,VALID,23.6257,VALID,10,VALID,0.392188,
2008-12-15, 01:31:04,VALID,1002.54,VALID,0,VALID,93.2859,VALID,0,VALID,23.6469,VALID,10,VALID,0.278516,
2008-12-15, 01:32:04,VALID,1002.53,VALID,0,VALID,93.3775,VALID,0,VALID,23.6257,VALID,10,VALID,0.301172,
2008-12-15, 01:33:04,VALID,1002.54,VALID,0,VALID,93.3928,VALID,0,VALID,23.585,VALID,10,VALID,0.25625,
2008-12-15, 01:34:04,VALID,1002.52,VALID,0,VALID,93.4004,VALID,0,VALID,23.6257,VALID,10,VALID,0.198828,
2008-12-15, 01:35:04,VALID,1002.5,VALID,0,VALID,93.4538,VALID,0,VALID,23.6062,VALID,10,VALID,0.219141,
2008-12-15, 01:36:04,VALID,1002.49,VALID,0,VALID,93.4156,VALID,0,VALID,23.6062,VALID,10,VALID,0.310937,
2008-12-15, 01:37:04,VALID,1002.49,VALID,0,VALID,93.4004,VALID,0,VALID,23.6257,VALID,10,VALID,0.447266,
2008-12-15, 01:38:04,VALID,1002.46,VALID,0,VALID,93.4462,VALID,0,VALID,23.6062,VALID,10,VALID,0.379297,
2008-12-15, 01:39:04,VALID,1002.42,VALID,0,VALID,93.4004,VALID,0,VALID,23.5868,VALID,10,VALID,0.619531,
2008-12-15, 01:40:04,VALID,1002.42,VALID,0,VALID,93.4156,VALID,0,VALID,23.5673,VALID,10,VALID,0.614062,
2008-12-15, 01:41:04,VALID,1002.42,VALID,0,VALID,93.5224,VALID,0,VALID,23.5284,VALID,10,VALID,0.573828,
2008-12-15, 01:42:04,VALID,1002.42,VALID,0,VALID,93.6369,VALID,0,VALID,23.5478,VALID,9,VALID,0.630078,
2008-12-15, 01:43:04,VALID,1002.4,VALID,0,VALID,93.6903,VALID,0,VALID,23.5691,VALID,9,VALID,0.510938,
2008-12-15, 01:44:04,VALID,1002.41,VALID,0,VALID,93.7132,VALID,0,VALID,23.5478,VALID,8,VALID,0.581641,
2008-12-15, 01:45:04,VALID,1002.38,VALID,0,VALID,93.8047,VALID,0,VALID,23.5885,VALID,348,VALID,0.737891,
2008-12-15, 01:46:04,VALID,1002.37,VALID,0,VALID,93.8505,VALID,0,VALID,23.5868,VALID,344,VALID,0.595703,
2008-12-15, 01:47:04,VALID,1002.37,VALID,0,VALID,93.8963,VALID,0,VALID,23.6469,VALID,346,VALID,0.199219,
2008-12-15, 01:48:04,VALID,1002.33,VALID,0,VALID,93.8352,VALID,0,VALID,23.6646,VALID,346,VALID,0.125781,
2008-12-15, 01:49:04,VALID,1002.32,VALID,0,VALID,93.7742,VALID,0,VALID,23.6841,VALID,346,VALID,0.00117188,
2008-12-15, 01:50:04,VALID,1002.3,VALID,0,VALID,93.7513,VALID,0,VALID,23.7443,VALID,346,VALID,0.45,
2008-12-15, 01:51:04,VALID,1002.3,VALID,0,VALID,93.6826,VALID,0,VALID,23.7619,VALID,346,VALID,0.469922,
2008-12-15, 01:52:04,VALID,1002.27,VALID,0,VALID,93.4385,VALID,0,VALID,23.8221,VALID,346,VALID,0.422656,
2008-12-15, 01:53:04,VALID,1002.27,VALID,0,VALID,93.3241,VALID,0,VALID,23.8398,VALID,346,VALID,0.376953,
2008-12-15, 01:54:04,VALID,1002.26,VALID,0,VALID,92.9808,VALID,0,VALID,23.8221,VALID,349,VALID,0.529688,
2008-12-15, 01:55:04,VALID,1002.26,VALID,0,VALID,92.7901,VALID,0,VALID,23.7407,VALID,350,VALID,0.314844,
2008-12-15, 01:56:04,VALID,1002.24,VALID,0,VALID,92.9274,VALID,0,VALID,23.7194,VALID,350,VALID,0.250781,
2008-12-15, 01:57:04,VALID,1002.19,VALID,0,VALID,93.2097,VALID,0,VALID,23.7407,VALID,350,VALID,0.498047,
2008-12-15, 01:58:04,VALID,1002.21,VALID,0,VALID,93.3241,VALID,0,VALID,23.7814,VALID,350,VALID,0.460547,
2008-12-15, 01:59:04,VALID,1002.17,VALID,0,VALID,93.3241,VALID,0,VALID,23.7601,VALID,350,VALID,0.196875,
2008-12-15, 02:00:04,VALID,1002.19,VALID,0,VALID,93.4004,VALID,0,VALID,23.7796,VALID,350,VALID,0.308984,
2008-12-15, 02:01:04,VALID,1002.18,VALID,0,VALID,93.3394,VALID,0,VALID,23.7601,VALID,350,VALID,0.455078,
2008-12-15, 02:02:04,VALID,1002.17,VALID,0,VALID,93.3012,VALID,0,VALID,23.7407,VALID,350,VALID,0.392188,
2008-12-15, 02:03:04,VALID,1002.18,VALID,0,VALID,93.2478,VALID,0.100563,VALID,23.7,VALID,350,VALID,0.334375,
2008-12-15, 02:04:04,VALID,1002.18,VALID,0,VALID,93.2859,VALID,0,VALID,23.7425,VALID,350,VALID,0.321484,
2008-12-15, 02:05:04,VALID,1002.17,VALID,0,VALID,93.3012,VALID,0,VALID,23.7425,VALID,350,VALID,0.361328,
2008-12-15, 02:06:04,VALID,1002.18,VALID,0,VALID,93.3546,VALID,0.100563,VALID,23.7212,VALID,350,VALID,0.3375,
2008-12-15, 02:07:04,VALID,1002.17,VALID,0,VALID,93.3546,VALID,0.100563,VALID,23.7212,VALID,350,VALID,0.455859,
2008-12-15, 02:08:04,VALID,1002.16,VALID,0,VALID,93.3546,VALID,0.100563,VALID,23.7407,VALID,350,VALID,0.524609,
2008-12-15, 02:09:04,VALID,1002.17,VALID,0,VALID,93.3622,VALID,0,VALID,23.7407,VALID,350,VALID,0.484766,
2008-12-15, 02:10:04,VALID,1002.2,VALID,0,VALID,93.3851,VALID,0,VALID,23.7425,VALID,350,VALID,0.341016,
2008-12-15, 02:11:04,VALID,1002.19,VALID,0,VALID,93.3775,VALID,0,VALID,23.7425,VALID,350,VALID,0.438672,
2008-12-15, 02:12:04,VALID,1002.17,VALID,0,VALID,93.4614,VALID,0,VALID,23.7619,VALID,350,VALID,0.589063,
2008-12-15, 02:13:04,VALID,1002.16,VALID,0,VALID,93.4004,VALID,0,VALID,23.8009,VALID,350,VALID,0.486719,
2008-12-15, 02:14:04,VALID,1002.16,VALID,0,VALID,93.2249,VALID,0,VALID,23.8611,VALID,349,VALID,0.465234,
2008-12-15, 02:15:04,VALID,1002.16,VALID,0,VALID,93.08,VALID,0,VALID,23.8787,VALID,350,VALID,0.499609,
2008-12-15, 02:16:04,VALID,1002.14,VALID,0,VALID,92.8892,VALID,0,VALID,23.8982,VALID,350,VALID,0.45,
2008-12-15, 02:17:04,VALID,1002.15,VALID,0,VALID,92.6909,VALID,0,VALID,23.9779,VALID,350,VALID,0.474609,
2008-12-15, 02:18:04,VALID,1002.12,VALID,0,VALID,92.3552,VALID,0,VALID,24.0345,VALID,350,VALID,0.513281,
2008-12-15, 02:19:04,VALID,1002.12,VALID,0,VALID,92.0196,VALID,0,VALID,24.1142,VALID,350,VALID,0.139453,
2008-12-15, 02:20:04,VALID,1002.12,VALID,0,VALID,91.6534,VALID,0,VALID,24.1513,VALID,350,VALID,0.0769531,
2008-12-15, 02:21:04,VALID,1002.1,VALID,0,VALID,91.3864,VALID,0,VALID,24.231,VALID,352,VALID,0.642578,
2008-12-15, 02:22:04,VALID,1002.09,VALID,0,VALID,90.9515,VALID,0,VALID,24.307,VALID,341,VALID,0.277734,
2008-12-15, 02:23:04,VALID,1002.09,VALID,0,VALID,90.5014,VALID,0,VALID,24.3849,VALID,352,VALID,0.553516,
2008-12-15, 02:24:04,VALID,1002.09,VALID,0,VALID,89.975,VALID,0,VALID,24.5017,VALID,353,VALID,0.559766,
2008-12-15, 02:25:04,VALID,1002.07,VALID,0,VALID,89.5707,VALID,0,VALID,24.599,VALID,351,VALID,0.524219,
2008-12-15, 02:26:04,VALID,1002.06,VALID,0,VALID,89.1282,VALID,0,VALID,24.6361,VALID,351,VALID,0.314844,
2008-12-15, 02:27:04,VALID,1002.09,VALID,0,VALID,88.9909,VALID,0,VALID,24.6945,VALID,339,VALID,0.550391,
2008-12-15, 02:28:04,VALID,1002.09,VALID,0,VALID,88.7391,VALID,0,VALID,24.7353,VALID,339,VALID,0.278906,
2008-12-15, 02:29:04,VALID,1002.1,VALID,0,VALID,88.5255,VALID,0,VALID,24.7548,VALID,339,VALID,0.441406,
2008-12-15, 02:30:04,VALID,1002.07,VALID,0,VALID,88.5408,VALID,0.100563,VALID,24.7548,VALID,340,VALID,0.480859,
2008-12-15, 02:31:04,VALID,1002.04,VALID,0,VALID,88.4721,VALID,0.100563,VALID,24.714,VALID,347,VALID,0.611719,
2008-12-15, 02:32:04,VALID,1002.05,VALID,0,VALID,88.6934,VALID,0,VALID,24.714,VALID,349,VALID,0.407813,
2008-12-15, 02:33:04,VALID,1002.02,VALID,0,VALID,88.6323,VALID,0,VALID,24.7159,VALID,355,VALID,0.35,
2008-12-15, 02:34:04,VALID,1002.03,VALID,0,VALID,88.8002,VALID,0,VALID,24.675,VALID,355,VALID,0.376563,
2008-12-15, 02:35:04,VALID,1002.02,VALID,0,VALID,88.7239,VALID,0,VALID,24.6769,VALID,355,VALID,0,
2008-12-15, 02:36:04,VALID,1001.99,VALID,0,VALID,88.7773,VALID,0.100563,VALID,24.6556,VALID,355,VALID,0.270703,
2008-12-15, 02:37:04,VALID,1001.99,VALID,0,VALID,88.8841,VALID,0,VALID,24.6574,VALID,355,VALID,0.320703,
2008-12-15, 02:38:04,VALID,1001.99,VALID,0,VALID,88.7315,VALID,0,VALID,24.6166,VALID,355,VALID,0.00585938,
2008-12-15, 02:39:04,VALID,1001.98,VALID,0,VALID,88.762,VALID,0.100563,VALID,24.6166,VALID,355,VALID,0,
2008-12-15, 02:40:04,VALID,1001.96,VALID,0,VALID,88.762,VALID,0,VALID,24.6398,VALID,355,VALID,0,
2008-12-15, 02:41:04,VALID,1002.02,VALID,0,VALID,88.7544,VALID,0,VALID,24.638,VALID,355,VALID,0,
2008-12-15, 02:42:04,VALID,1002,VALID,0,VALID,88.5789,VALID,0,VALID,24.6574,VALID,355,VALID,0.00195313,
2008-12-15, 02:43:04,VALID,1002.01,VALID,0,VALID,88.4264,VALID,0,VALID,24.6769,VALID,355,VALID,0.326172,
2008-12-15, 02:44:04,VALID,1002.02,VALID,0,VALID,87.9839,VALID,0,VALID,24.6964,VALID,344,VALID,0.621484,
2008-12-15, 02:45:04,VALID,1002.03,VALID,0,VALID,87.9152,VALID,0,VALID,24.7761,VALID,348,VALID,0.514844,
2008-12-15, 02:46:04,VALID,1002.01,VALID,0,VALID,87.7016,VALID,0,VALID,24.8151,VALID,348,VALID,0.325781,
2008-12-15, 02:47:04,VALID,1002.02,VALID,0,VALID,87.5109,VALID,0,VALID,24.8132,VALID,314,VALID,0.442578,
2008-12-15, 02:48:04,VALID,1002.02,VALID,0,VALID,87.6329,VALID,0,VALID,24.8735,VALID,342,VALID,0.649609,
2008-12-15, 02:49:04,VALID,1002.02,VALID,0,VALID,87.8313,VALID,0,VALID,24.854,VALID,344,VALID,0.475781,
2008-12-15, 02:50:04,VALID,1002,VALID,0,VALID,88.0373,VALID,0,VALID,24.7937,VALID,352,VALID,0.480859,
2008-12-15, 02:51:04,VALID,1002.02,VALID,0,VALID,88.3501,VALID,0,VALID,24.7761,VALID,352,VALID,0.320703,
2008-12-15, 02:52:04,VALID,1002.02,VALID,0,VALID,88.6476,VALID,0,VALID,24.7159,VALID,352,VALID,0.310937,
2008-12-15, 02:53:04,VALID,1002,VALID,0,VALID,88.7468,VALID,0,VALID,24.6983,VALID,352,VALID,0.413281,
2008-12-15, 02:54:04,VALID,1002.03,VALID,0,VALID,88.3424,VALID,0,VALID,24.6788,VALID,353,VALID,0.486719,
2008-12-15, 02:55:04,VALID,1002.04,VALID,0,VALID,88.2967,VALID,0,VALID,24.7159,VALID,346,VALID,0.366406,
2008-12-15, 02:56:04,VALID,1002.05,VALID,0,VALID,88.0525,VALID,0,VALID,24.7159,VALID,345,VALID,0.410937,
2008-12-15, 02:57:04,VALID,1002.03,VALID,0,VALID,87.9381,VALID,0,VALID,24.7353,VALID,346,VALID,0.439844,
2008-12-15, 02:58:04,VALID,1002.01,VALID,0,VALID,88.0373,VALID,0,VALID,24.7743,VALID,349,VALID,0.358594,
2008-12-15, 02:59:04,VALID,1002.01,VALID,0,VALID,87.9152,VALID,0,VALID,24.7743,VALID,349,VALID,0.234766,
2008-12-15, 03:00:04,VALID,1001.99,VALID,0,VALID,87.5948,VALID,0,VALID,24.7937,VALID,348,VALID,0.398828,
2008-12-15, 03:01:04,VALID,1002.01,VALID,0,VALID,87.1981,VALID,0,VALID,24.8327,VALID,356,VALID,0.895703,
2008-12-15, 03:02:04,VALID,1002.01,VALID,0,VALID,86.9769,VALID,0,VALID,24.8679,VALID,342,VALID,0.421484,
2008-12-15, 03:03:04,VALID,1001.98,VALID,0,VALID,86.7327,VALID,0,VALID,24.9495,VALID,342,VALID,0.358594,
2008-12-15, 03:04:04,VALID,1001.98,VALID,0,VALID,86.9235,VALID,0,VALID,24.9885,VALID,343,VALID,0.492188,
2008-12-15, 03:05:04,VALID,1002,VALID,0,VALID,87.0989,VALID,0.100563,VALID,24.9885,VALID,343,VALID,0.225781,
2008-12-15, 03:06:04,VALID,1001.99,VALID,0,VALID,87.2668,VALID,0,VALID,24.9476,VALID,343,VALID,0.346484,
2008-12-15, 03:07:04,VALID,1001.96,VALID,0,VALID,87.6101,VALID,0.100563,VALID,24.9087,VALID,343,VALID,0.306641,
2008-12-15, 03:08:04,VALID,1001.95,VALID,0,VALID,87.6024,VALID,0.100563,VALID,24.8697,VALID,343,VALID,0.401172,
2008-12-15, 03:09:04,VALID,1001.94,VALID,0,VALID,87.9686,VALID,0,VALID,24.8308,VALID,343,VALID,0.408594,
2008-12-15, 03:10:04,VALID,1001.93,VALID,0,VALID,88.3882,VALID,0,VALID,24.8346,VALID,343,VALID,0.158203,
2008-12-15, 03:11:04,VALID,1001.95,VALID,0,VALID,88.5789,VALID,0,VALID,24.7956,VALID,343,VALID,0.178906,
2008-12-15, 03:12:04,VALID,1001.95,VALID,0,VALID,88.6781,VALID,0,VALID,24.7353,VALID,343,VALID,0.254297,
2008-12-15, 03:13:04,VALID,1001.94,VALID,0,VALID,88.7162,VALID,0,VALID,24.7177,VALID,343,VALID,0.314844,
2008-12-15, 03:14:04,VALID,1001.91,VALID,0,VALID,89.029,VALID,0,VALID,24.6788,VALID,343,VALID,0.289453,
2008-12-15, 03:15:04,VALID,1001.91,VALID,0,VALID,89.2121,VALID,0,VALID,24.6788,VALID,343,VALID,0.19375,
2008-12-15, 03:16:04,VALID,1001.91,VALID,0,VALID,89.1206,VALID,0,VALID,24.6185,VALID,343,VALID,0.0527344,
2008-12-15, 03:17:04,VALID,1001.94,VALID,0,VALID,89.2579,VALID,0,VALID,24.6185,VALID,343,VALID,0,
2008-12-15, 03:18:04,VALID,1001.93,VALID,0,VALID,89.4639,VALID,0,VALID,24.6204,VALID,343,VALID,0.211719,
2008-12-15, 03:19:04,VALID,1001.93,VALID,0,VALID,89.3113,VALID,0,VALID,24.5814,VALID,343,VALID,0.1375,
2008-12-15, 03:20:04,VALID,1001.94,VALID,0,VALID,89.1969,VALID,0,VALID,24.6009,VALID,343,VALID,0,
2008-12-15, 03:21:04,VALID,1001.92,VALID,0,VALID,89.1206,VALID,0,VALID,24.6009,VALID,343,VALID,0,
2008-12-15, 03:22:04,VALID,1001.96,VALID,0,VALID,89.0748,VALID,0,VALID,24.6009,VALID,343,VALID,0,
2008-12-15, 03:23:04,VALID,1001.94,VALID,0,VALID,89.2426,VALID,0,VALID,24.5796,VALID,343,VALID,0.403125,
2008-12-15, 03:24:04,VALID,1001.97,VALID,0,VALID,89.38,VALID,0,VALID,24.6009,VALID,343,VALID,0.417969,
2008-12-15, 03:25:04,VALID,1001.96,VALID,0,VALID,89.441,VALID,0,VALID,24.5582,VALID,343,VALID,0.364844,
2008-12-15, 03:26:04,VALID,1001.96,VALID,0,VALID,89.5325,VALID,0.100563,VALID,24.5388,VALID,343,VALID,0.405469,
2008-12-15, 03:27:04,VALID,1001.97,VALID,0,VALID,89.6317,VALID,0,VALID,24.4998,VALID,343,VALID,0.466016,
2008-12-15, 03:28:04,VALID,1001.96,VALID,0,VALID,89.853,VALID,0.100563,VALID,24.4822,VALID,352,VALID,0.467187,
2008-12-15, 03:29:04,VALID,1001.96,VALID,0,VALID,90.0513,VALID,0,VALID,24.4238,VALID,352,VALID,0.199219,
2008-12-15, 03:30:04,VALID,1001.98,VALID,0,VALID,89.8072,VALID,0,VALID,24.3636,VALID,352,VALID,0.182422,
2008-12-15, 03:31:04,VALID,1001.98,VALID,0,VALID,90.036,VALID,0,VALID,24.4043,VALID,352,VALID,0.439063,
2008-12-15, 03:32:04,VALID,1001.99,VALID,0,VALID,90.0437,VALID,0,VALID,24.3636,VALID,352,VALID,0.383203,
2008-12-15, 03:33:04,VALID,1001.99,VALID,0,VALID,90.1581,VALID,0,VALID,24.3636,VALID,352,VALID,0.246094,
2008-12-15, 03:34:04,VALID,1002.03,VALID,0,VALID,90.2725,VALID,0,VALID,24.3459,VALID,357,VALID,0.405469,
2008-12-15, 03:35:04,VALID,1002.04,VALID,0,VALID,90.4938,VALID,0.100563,VALID,24.307,VALID,357,VALID,0.285547,
2008-12-15, 03:36:04,VALID,1002.09,VALID,0,VALID,90.7455,VALID,0,VALID,24.2468,VALID,357,VALID,0.240625,
2008-12-15, 03:37:04,VALID,1002.07,VALID,0,VALID,90.8676,VALID,0,VALID,24.2097,VALID,357,VALID,0,
2008-12-15, 03:38:04,VALID,1002.07,VALID,0,VALID,90.9668,VALID,0,VALID,24.1689,VALID,357,VALID,0,
2008-12-15, 03:39:04,VALID,1002.08,VALID,0,VALID,91.0507,VALID,0,VALID,24.13,VALID,357,VALID,0,
2008-12-15, 03:40:04,VALID,1002.08,VALID,0,VALID,91.2033,VALID,0,VALID,24.13,VALID,357,VALID,0,
2008-12-15, 03:41:04,VALID,1002.1,VALID,0,VALID,91.249,VALID,0,VALID,24.1123,VALID,357,VALID,0,
2008-12-15, 03:42:04,VALID,1002.09,VALID,0,VALID,91.5161,VALID,0,VALID,24.1123,VALID,357,VALID,0.0503906,
2008-12-15, 03:43:04,VALID,1002.11,VALID,0,VALID,91.6839,VALID,0.100563,VALID,24.0716,VALID,357,VALID,0.276953,
2008-12-15, 03:44:04,VALID,1002.13,VALID,0,VALID,91.661,VALID,0.100563,VALID,24.0132,VALID,357,VALID,0.173828,